$103.51 -0.54 (-0.519%) NextEra Energy Inc - NYSE

Apr. 1, 2015 | 09:30 AM

Insider Transactions

Latest insider trade data based on US Insider Regulatory Filings which are subject to input errors by filers. Insiderslab.com may adjust certain filings for common filing errors on a reasonable effort basis.
Date Name Title Volume Trade Price Holding Change
8/15/2013Silagy Eric EN/A-101$83.00-0.59%
8/15/2013FROGGATT CHRIS NVP, Controller and CAO-4,698$83.17-24.13%
8/15/2013Sieving Charles EEVP & General Counsel20,338$45.5752.76%
8/15/2013Sieving Charles EEVP & General Counsel-20,338$83.52-34.54%
6/14/2013Silagy Eric EN/A-4,000$79.18-18.81%
5/15/2013Caplan Deborah HEVP, HR & Corp Services-34$81.16-0.29%
5/14/2013Caplan Deborah HEVP, HR & Corp Services-5,371$79.92-31.69%
3/22/2013YEAGER WILLIAM LEVP Eng, Const. & ISC-3,500$75.64-30.04%
3/15/2013HAY LEWIS IIIExec Chairman-60,000$74.37-52.17%
3/11/2013RODRIGUEZ ANTONIOEVP-Power Generation-12,000$74.13-31.97%
3/08/2013Pimentel Armando JrN/A-7,500$73.97-12.12%
2/15/2013Silagy Eric EN/A-890$72.50-5.80%
2/15/2013Silagy Eric EN/A-1,414$72.50-6.24%
2/15/2013Sieving Charles EEVP & General Counsel-1,809$72.50-6.01%
2/15/2013Sieving Charles EEVP & General Counsel-2,409$72.50-5.88%
2/15/2013Pimentel Armando JrN/A-3,287$72.50-6.66%
2/15/2013Pimentel Armando JrN/A-6,075$72.50-8.94%
2/15/2013DEWHURST MORAY PVice Chairman & CFO-5,065$72.50-1.99%
2/15/2013DEWHURST MORAY PVice Chairman & CFO-9,572$72.50-3.39%
2/15/2013ROBO JAMES LPresident & CEO-14,580$72.50-9.75%
2/15/2013ROBO JAMES LPresident & CEO-7,667$72.50-7.53%
2/15/2013HAY LEWIS IIIExec Chairman-43,267$72.50-10.33%
2/15/2013HAY LEWIS IIIExec Chairman-23,638$72.50-7.35%
2/15/2013YEAGER WILLIAM LEVP Eng, Const. & ISC-1,382$72.50-10.60%
2/15/2013YEAGER WILLIAM LEVP Eng, Const. & ISC-942$72.50-13.67%
2/15/2013FROGGATT CHRIS NVP, Controller and CAO-1,430$72.50-6.84%
2/15/2013FROGGATT CHRIS NVP, Controller and CAO-835$72.50-5.86%
2/15/2013Kelliher Joseph TEVP, Federal Reg. Affairs-1,614$72.50-8.85%
2/15/2013Kelliher Joseph TEVP, Federal Reg. Affairs-932$72.50-7.10%
2/15/2013Francis Shaun JEVP, HR & Corp Services-1,440$72.50-6.50%
2/15/2013Francis Shaun JEVP, HR & Corp Services-655$72.50-4.36%
2/15/2013RODRIGUEZ ANTONIOEVP-Power Generation-5,064$72.50-11.89%
2/15/2013RODRIGUEZ ANTONIOEVP-Power Generation-2,408$72.50-9.11%
2/15/2013CUTLER PAUL ITreasurer-1,824$72.50-2.96%
2/15/2013CUTLER PAUL ITreasurer-1,065$72.50-2.01%
2/15/2013Nazar Manoochehr KEVP, Nuclear Div-8,156$72.50-5.99%
2/15/2013Nazar Manoochehr KEVP, Nuclear Div-5,033$72.50-4.40%
12/19/2012CUTLER PAUL ITreasurer12,000$28.3822.66%
12/19/2012CUTLER PAUL ITreasurer-12,000$70.51-18.47%
12/19/2012CUTLER PAUL ITreasurer10,000$32.4618.88%
12/19/2012CUTLER PAUL ITreasurer-10,000$70.36-15.88%
11/29/2012RODRIGUEZ ANTONIOEVP-Power Generation-17,000$68.01-39.15%
11/29/2012RODRIGUEZ ANTONIOEVP-Power Generation17,000$41.7664.35%
11/29/2012RODRIGUEZ ANTONIOEVP-Power Generation-20,000$68.02-43.09%
11/29/2012RODRIGUEZ ANTONIOEVP-Power Generation20,000$36.9575.70%
11/29/2012RODRIGUEZ ANTONIOEVP-Power Generation-40,000$68.02-60.22%
11/29/2012RODRIGUEZ ANTONIOEVP-Power Generation40,000$32.46151.41%
11/27/2012Silagy Eric EN/A-4,000$68.02-20.69%
11/02/2012ROBO JAMES LPresident & CEO33,768$32.4640.39%
11/01/2012ROBO JAMES LPresident & CEO-66,232$69.86-44.20%
11/01/2012ROBO JAMES LPresident & CEO66,232$32.4679.21%
10/31/2012HAY LEWIS IIIExec Chairman150,000$32.4646.62%
10/31/2012HAY LEWIS IIIExec Chairman-150,000$70.07-31.80%
10/26/2012SWANSON WILLIAM HDirector7,195$69.5399.86%
10/25/2012MCGRATH ROBERT LEVP Eng, Const. & Corp Svs-3,221$69.61-10.08%
10/19/2012FROGGATT CHRIS NVP, Controller and CAO-322$71.72-2.21%
10/14/2012Francis Shaun JEVP, Human Resources-525$69.37-3.38%
10/05/2012MCGRATH ROBERT LEVP Eng, Const. & Corp Svs-13,904$71.01-30.32%
10/05/2012MCGRATH ROBERT LEVP Eng, Const. & Corp Svs13,904$45.5743.50%
10/05/2012MCGRATH ROBERT LEVP Eng, Const. & Corp Svs-14,895$71.05-31.79%
10/05/2012MCGRATH ROBERT LEVP Eng, Const. & Corp Svs-9,807$70.98-23.48%
10/05/2012MCGRATH ROBERT LEVP Eng, Const. & Corp Svs14,895$50.9146.61%
10/05/2012MCGRATH ROBERT LEVP Eng, Const. & Corp Svs13,500$41.7642.24%
10/05/2012MCGRATH ROBERT LEVP Eng, Const. & Corp Svs-13,500$71.03-29.70%
10/05/2012MCGRATH ROBERT LEVP Eng, Const. & Corp Svs9,807$59.0530.69%
9/04/2012HAY LEWIS IIIExec Chairman-40,000$67.18-25.81%
9/04/2012HAY LEWIS IIIExec Chairman-20,000$67.19-12.24%
9/04/2012HAY LEWIS IIIExec Chairman-150,000$67.16-31.80%
9/04/2012HAY LEWIS IIIExec Chairman150,000$27.5646.62%
9/04/2012Pimentel Armando JrN/A-7,500$67.17-13.19%
8/20/2012DEWHURST MORAY PVice Chairman & CFO-25,000$69.12-8.95%
8/20/2012DEWHURST MORAY PVice Chairman & CFO-25,000$68.95-8.95%
8/20/2012DEWHURST MORAY PVice Chairman & CFO-25,000$68.82-8.95%
8/20/2012DEWHURST MORAY PVice Chairman & CFO-25,000$68.90-8.95%
8/20/2012DEWHURST MORAY PVice Chairman & CFO25,000$32.469.83%
8/15/2012Silagy Eric EN/A-63$69.23-0.32%
8/01/2012DEWHURST MORAY PVice Chairman & CFO-25,000$70.98-8.95%
8/01/2012DEWHURST MORAY PVice Chairman & CFO-7,000$72.00-2.68%
8/01/2012DEWHURST MORAY PVice Chairman & CFO-18,000$71.42-6.44%
8/01/2012DEWHURST MORAY PVice Chairman & CFO-25,000$71.10-8.95%
8/01/2012DEWHURST MORAY PVice Chairman & CFO-25,000$71.04-8.95%
8/01/2012DEWHURST MORAY PVice Chairman & CFO25,000$27.569.83%
6/14/2012RODRIGUEZ ANTONIOEVP-Power Generation-4,000$67.33-13.15%
6/14/2012RODRIGUEZ ANTONIOEVP-Power Generation-7,000$67.34-100.00%
5/15/2012Kelliher Joseph TEVP, Federal Reg. Affairs-722$65.64-5.21%
5/15/2012DEWHURST MORAY PVice Chairman & CFO-4,813$65.64-1.86%
5/15/2012DEWHURST MORAY PVice Chairman & CFO-1,620$65.64-0.65%
3/16/2012ROBO JAMES LPresident & COO34,041$27.5624.27%
3/15/2012ROBO JAMES LPresident & COO-8,000$60.02-5.40%
3/15/2012ROBO JAMES LPresident & COO65,959$27.5647.03%
3/15/2012ROBO JAMES LPresident & COO-65,959$60.08-31.99%
3/15/2012RODRIGUEZ ANTONIOEVP-Power Generation-10,000$60.00-24.74%
3/08/2012Pimentel Armando JrN/A-7,500$59.91-11.65%
2/27/2012CUTLER PAUL ITreasurer12,000$27.3122.66%
2/27/2012CUTLER PAUL ITreasurer-12,000$60.64-18.47%
2/17/2012Sieving Charles EEVP & General Counsel-1,508$60.22-4.77%
2/17/2012Kelliher Joseph TEVP, Federal Reg. Affairs-1,456$60.22-9.51%
2/17/2012OLIVERA ARMANDO JN/A-6,776$60.22-7.47%
2/17/2012RODRIGUEZ ANTONIOEVP-Power Generation-3,522$60.22-8.02%
2/17/2012Bennett Christopher AEVP-Chf Strat,Pol & Bus Proc-2,488$60.22-4.97%
Data provided by Insiderslab.com. To read detailed Insider Trading Research Report for (NEE), click here.
Trading Center